{"data":{"norad_id":50808,"intl_designator":"2022-001F","name":"STARLINK-3355","alt_names":[],"object_type":"PAYLOAD","status":"ACTIVE","operator":null,"country":"US","launch_date":"2022-01-06","launch_site_code":"AFETR","launch_vehicle":null,"mission":null,"orbit_class":"UNKNOWN","rcs_meters":null,"size_class":null,"mass_kg":null,"dimensions":null,"purposes":["comms"],"wikipedia_slug":null,"has_3d_model":false,"image_url":null,"decayed_at":null,"tle_current":{"epoch":"2026-09-19T17:53:59.472672Z","epoch_age_seconds":110522,"freshness":"FRESH","line1":"1 50808U 22001F   26262.74582723  .00000784  00000+0  37008-4 0  9992","line2":"2 50808  53.1613 355.2767 0001000  81.0732 279.0382 15.31704143260018","mean_motion":15.31704143,"eccentricity":0.0001,"inclination_deg":53.1613,"raan_deg":355.2767,"arg_perigee_deg":81.0732,"mean_anomaly_deg":279.0382,"bstar":3.7008e-5,"rev_number":26001,"period_min":94.012933671356,"perigee_km":470.04275872155,"apogee_km":471.41253165059,"semimajor_km":6848.8646451861,"source":"CELESTRAK","updated_at":"2026-09-20T09:00:39.575682Z"}}}